Weather in Mamedkala

Russia / Republic of Dagestan     42°10′12″N   48°07′09″E
temp.,
°C
wind,
m/s
gust,
m/s
humid.,
%
clouds,
%
prec.,
mm/h
press.,
hPa
HPBL,
m
14 may, fri
fri1400:00+14sse11764 0.1 101511
03:00+13ene00780 0.1 101511
06:00+17sse12623 0.0 101550
09:00+24ese35430 0.0 1014454
12:00+28ese610330 0.0 1014937
15:00+28ese6103258 0.0 1013945
18:00+23se345283 0.0 101373
21:00+18ssw1158100 0.0 101426
15 may, sat
sat1500:00+17ssw01573 0.0 101415
03:00+17ssw12520 0.0 101313
06:00+20sw11510 0.0 101423
09:00+25e35350 0.0 1014561
12:00+28ese68270 0.0 1013955
15:00+28ese69210 0.0 1013923
18:00+24ese34320 0.0 101392
21:00+18w11435 0.0 101413
16 may, sun
sun1600:00+16ssw115325 0.0 101312
03:00+17ssw125240 0.0 101212
06:00+20ssw115116 0.0 101233
09:00+27ese59260 0.0 1011908
12:00+29ese79230 0.0 10101295
15:00+28ese712280 0.0 1008766
18:00+23ese36420 0.0 1009195
21:00+17se11560 0.0 100931
17 may, mon
mon1700:00+17ssw11550 0.0 100812
03:00+16s11519 0.0 100726
06:00+19ese014618 0.0 100752
09:00+25e32325 0.0 1007476
12:00+27ene43306 0.0 1006689
15:00+25ene323611 0.0 1005496
18:00+21ne225253 0.0 1005132
21:00+17nw116767 0.0 100628
18 may, tue
tue1800:00+17nnw23575 0.0 100751
03:00+17nnw235881 0.0 100775
06:00+19nw1353100 0.0 1009112
09:00+24n585594 0.0 1009677
12:00+25nne6953100 0.0 1010932
15:00+22n3769100 1.1 1011560
18:00+21w2379100 1.7 101183
21:00+19wsw2280100 1.9 101221